Location: Kumla
(59.1265°N, 15.1401°E)
Time: 19:08:57
(UTC+01:00)

Vanguard 1 Rocket - Pass Details

Date: 07 December 2023
Orbit: 654 x 4218 km, 34.3° (Epoch: 21 February)

Event Time Altitude Azimuth Distance (km) Brightness Sun altitude
Rises 05:50:21 0° 235° (SW) 8,060 11.8 -19.3°
Reaches altitude 10° 05:57:56 10° 225° (SW) 6,552 11.4 -18.3°
Maximum altitude 06:11:12 24° 182° (S) 4,269 10.9 -16.7°
Drops below altitude 10° 06:20:04 10° 135° (SE) 4,247 11.8 -15.6°
Sets 06:23:36 0° 121° (ESE) 4,779 12.8 -15.2°
